Home   Weather   27°28'S, 153°01'E   Past weeks
Flag for Australia

Past Weather in 27°28'S, 153°01'E, Australia — Yesterday and Last 2 Weeks

Now
61 °F

Passing clouds.


Feels Like: 61 °F
Forecast: 78 / 58 °F
Wind: 6 mph from Southwest

Location: Brisbane Airport M. O

Current Time: Oct 24, 2019 at 2:35:59 am

Latest Report: Oct 24, 2019 at 2:00 am


Visibility: N/A

Pressure: 30.15 "Hg

Humidity: 88%

Dew Point: 57 °F

Location of 27°28'S, 153°01'ELocation

Past Weather in 27°28'S, 153°01'E — Graph

°F

27°28'S, 153°01'E Temperature Yesterday

Maximum temperature yesterday: 75 °F (at 11:30 am)
Minimum temperature yesterday: 61 °F (at 3:00 am)
Average temperature yesterday: 68 °F

High & Low Weather Summary for the Past Weeks

 TemperatureHumidityPressure
High79 °F (Oct 16, 9:30 am)100% (Oct 12, 7:00 am)30.27 "Hg (Oct 12, 7:00 am)
Low54 °F (Oct 12, 9:00 am)38% (Oct 9, 12:30 pm)29.74 "Hg (Oct 17, 3:30 pm)
Average68 °F72%30.03 "Hg
* Reported Oct 9 1:00 am — Oct 24 1:00 am, 27°28'S, 153°01'E. Weather by CustomWeather, © 2019

Note: Actual official high and low records may vary slightly from our data, if they occured in-between our weather recording intervals... More about our weather records

Advertising

27°28'S, 153°01'E Weather History for the Previous 24 Hours

Scroll right to see more
 ConditionsComfort  
Time TempWeatherWind HumidityBarometerVisibility
1:00 am
Thu, Oct 24
63 °FPassing clouds.6 mph77%30.18 "HgN/A
12:30 am63 °FPassing clouds.6 mph77%30.18 "HgN/A
12:00 am63 °FPassing clouds.3 mph77%30.18 "HgN/A
11:30 pm
Wed, Oct 23
64 °FPassing clouds.5 mph78%30.18 "HgN/A
11:00 pm64 °FClear.6 mph73%30.21 "Hg10 mi
10:30 pm64 °FClear.7 mph78%30.21 "Hg10 mi
10:00 pm64 °FClear.6 mph73%30.21 "Hg10 mi
9:30 pm64 °FClear.6 mph73%30.21 "Hg10 mi
9:00 pm64 °FClear.6 mph73%30.21 "Hg10 mi
8:30 pm68 °FClear.6 mph64%30.21 "Hg10 mi
8:00 pm68 °FPassing clouds.7 mph64%30.21 "HgN/A
7:30 pm68 °FPassing clouds.8 mph64%30.21 "HgN/A
7:00 pm68 °FPassing clouds.8 mph69%30.21 "HgN/A
6:30 pm70 °FPassing clouds.8 mph64%30.18 "HgN/A
6:00 pm70 °FPassing clouds.9 mph64%30.18 "HgN/A
5:30 pm70 °FPassing clouds.10 mph60%30.18 "HgN/A
5:00 pm72 °FPassing clouds.12 mph61%30.18 "HgN/A
4:30 pm72 °FPassing clouds.12 mph57%30.15 "HgN/A
4:00 pm73 °FPassing clouds.14 mph53%30.15 "HgN/A
3:30 pm73 °FPassing clouds.14 mph53%30.15 "HgN/A
3:00 pm75 °FPassing clouds.13 mph54%30.15 "HgN/A
2:30 pm75 °FPassing clouds.10 mph50%30.15 "HgN/A
2:00 pm75 °FPassing clouds.9 mph50%30.18 "HgN/A
1:30 pm75 °FPassing clouds.9 mph50%30.18 "HgN/A
1:00 pm75 °FPassing clouds.9 mph54%30.18 "HgN/A
12:30 pm73 °FScattered clouds.7 mph53%30.21 "HgN/A
12:00 pm75 °FScattered clouds.7 mph47%30.21 "HgN/A
11:30 am75 °FScattered clouds.8 mph47%30.21 "HgN/A
11:00 am73 °FScattered clouds.7 mph53%30.21 "HgN/A
10:00 am73 °FPassing clouds.8 mph57%30.24 "HgN/A
9:30 am72 °FPassing clouds.7 mph57%30.24 "HgN/A
9:00 am73 °FScattered clouds.8 mph53%30.24 "HgN/A
8:30 am73 °FScattered clouds.9 mph53%30.24 "HgN/A
8:00 am72 °FScattered clouds.7 mph65%30.24 "HgN/A
7:30 am68 °FPassing clouds.8 mph73%30.24 "HgN/A
7:00 am66 °FPassing clouds.9 mph73%30.24 "HgN/A
6:30 am64 °FPassing clouds.8 mph78%30.24 "HgN/A
6:00 am63 °FPassing clouds.7 mph83%30.21 "HgN/A
5:30 am61 °FPassing clouds.8 mph88%30.21 "HgN/A
5:00 am61 °FPassing clouds.8 mph88%30.21 "HgN/A
4:30 am63 °FPassing clouds.7 mph83%30.21 "HgN/A
4:00 am61 °FPassing clouds.7 mph88%30.21 "HgN/A
3:00 am61 °FPassing clouds.6 mph88%30.18 "HgN/A
2:30 am63 °FPassing clouds.6 mph83%30.18 "HgN/A
2:00 am64 °FPassing clouds.6 mph83%30.18 "HgN/A
Weather by CustomWeather, © 2019

See weather overview